Weather History for K20V - March, 2013

Change the Weather History Date:

Saturday, March 9, 2013

  Actual Average (KEGE) Record (KEGE)
Temperature  
Mean Temperature 28 °F -  
Max Temperature 33 °F 50 °F 70 °F (1972)
Min Temperature 23 °F 19 °F -18 °F (1964)
Degree Days  
Heating Degree Days 37    
Moisture  
Dew Point 23 °F    
Average Humidity 77    
Maximum Humidity 93    
Minimum Humidity 60    
Precipitation  
Precipitation 0.08 in - - ()
Sea Level Pressure  
Sea Level Pressure 29.81 in    
Wind  
Wind Speed 6 mph (NNW)    
Max Wind Speed 22 mph    
Max Gust Speed 28 mph    
Averages and records for this station are not official NWS values.
T = Trace of Precipitation, MM = Missing Value Source: NWS Daily Summary

Daily Weather History Graph

Daily Weather History Graph

Search for Another Location

Airport or City:

Trip Planner

Search our weather history database for the weather conditions in past years. The results will help you decide how hot, cold, wet, or windy it might be!

Date:

Astronomy

Mar. 09, 2013 Rise Set
Actual Time 6:26 AM MST 6:06 PM MST
Civil Twilight 5:59 AM MST 6:33 PM MST
Nautical Twilight 5:27 AM MST 7:04 PM MST
Astronomical Twilight 4:56 AM MST 7:36 PM MST
Moon 4:51 AM MST (3/9) 4:11 PM MST (3/9)
Length of Visible Light 12h 34m
Length of Day
11h 40m
Waning Crescent, 5% of the Moon is Illuminated
Mar 9
Waning Crescent
Mar 11
New
Mar 19
First Quarter
Mar 27
Full
Apr 2
Last Quarter

Hourly Weather History & Observations

Time (MST) Temp. Windchill Dew Point Humidity Pressure Visibility Wind Dir Wind Speed Gust Speed Precip Events Conditions
12:10 AM 30.2 °F 25.4 °F 26.6 °F 86% 29.69 in - ESE 4.6 mph - N/A   Unknown
12:36 AM 32.0 °F 28.7 °F 28.4 °F 87% 29.68 in - ESE 3.5 mph - N/A   Unknown
12:55 AM 32.0 °F - 28.4 °F 87% 29.68 in - Calm Calm - N/A Snow Light Snow
1:16 AM 30.2 °F - 28.4 °F 93% 29.68 in - Calm Calm - N/A Snow Light Snow
1:36 AM 30.2 °F - 28.4 °F 93% 29.68 in - Calm Calm - N/A Snow Light Snow
1:53 AM 30.2 °F - 28.4 °F 93% 29.67 in - Calm Calm - N/A Snow Light Snow
2:13 AM 30.2 °F - 28.4 °F 93% 29.66 in - Calm Calm - 0.01 in Snow Light Snow
2:32 AM 30.2 °F - 28.4 °F 93% 29.65 in - Calm Calm - 0.02 in Snow Snow
2:50 AM 32.0 °F 26.4 °F 30.2 °F 93% 29.65 in - SW 5.8 mph - 0.03 in Snow Snow
3:07 AM 32.0 °F 24.8 °F 30.2 °F 93% 29.65 in - West 8.1 mph 17.3 mph N/A Snow Light Snow
3:30 AM 32.0 °F - 30.2 °F 93% 29.64 in - Calm Calm - N/A Snow Light Snow
3:50 AM 32.0 °F - 28.4 °F 87% 29.64 in - Calm Calm - N/A Snow Light Snow
4:11 AM 32.0 °F - 28.4 °F 87% 29.65 in - Calm Calm - N/A Snow Light Snow
4:36 AM 32.0 °F 26.4 °F 28.4 °F 87% 29.65 in - West 5.8 mph - N/A Snow Light Snow
5:16 AM 32.0 °F - 28.4 °F 87% 29.65 in - Calm Calm - N/A Snow Light Snow
5:36 AM 32.0 °F 24.2 °F 28.4 °F 87% 29.65 in - West 9.2 mph - N/A   Overcast
5:54 AM 30.2 °F 24.3 °F 28.4 °F 93% 29.66 in - WSW 5.8 mph - N/A Snow Snow
6:15 AM 30.2 °F 25.4 °F 28.4 °F 93% 29.65 in - SSW 4.6 mph - N/A Snow Heavy Snow
6:35 AM 30.2 °F - 28.4 °F 93% 29.66 in - Calm Calm - 0.02 in Snow Heavy Snow
6:52 AM 30.2 °F 21.9 °F 28.4 °F 93% 29.66 in - SSW 9.2 mph - 0.04 in Snow Snow
7:16 AM 32.0 °F 24.8 °F 28.4 °F 87% 29.66 in - SSW 8.1 mph - 0.01 in Snow Light Snow
7:18 AM 32.0 °F 26.4 °F 28.4 °F 87% 29.66 in - SW 5.8 mph - 0.01 in Snow Light Snow
9:36 AM 33.8 °F 25.8 °F 28.4 °F 81% 29.69 in - NNW 10.4 mph - N/A Snow Light Snow
9:56 AM 33.8 °F 25.8 °F 26.6 °F 75% 29.69 in - NNW 10.4 mph - N/A Snow Light Snow
10:16 AM 33.8 °F 26.4 °F 26.6 °F 75% 29.70 in - NNW 9.2 mph - N/A Snow Light Snow
10:36 AM 33.8 °F 25.3 °F 26.6 °F 75% 29.70 in - NNW 11.5 mph 19.6 mph N/A Snow Light Snow
10:56 AM 33.8 °F 24.3 °F 24.8 °F 70% 29.71 in - NW 13.8 mph 17.3 mph N/A   Overcast
11:16 AM 33.8 °F 23.5 °F 26.6 °F 75% 29.72 in - NNW 16.1 mph 23.0 mph N/A   Overcast
11:35 AM 33.8 °F 24.3 °F 24.8 °F 70% 29.73 in - NNW 13.8 mph 21.9 mph N/A   Overcast
11:56 AM 33.8 °F 25.3 °F 24.8 °F 70% 29.74 in - NNW 11.5 mph 20.7 mph N/A   Overcast
12:16 PM 32.0 °F 21.6 °F 23.0 °F 69% 29.74 in - NNW 15.0 mph 26.5 mph N/A   Overcast
12:36 PM 33.8 °F 26.4 °F 24.8 °F 70% 29.75 in - NW 9.2 mph 17.3 mph N/A   Overcast
12:56 PM 33.8 °F 22.5 °F 23.0 °F 65% 29.74 in - NNW 19.6 mph 25.3 mph N/A   Overcast
1:16 PM 32.0 °F 19.5 °F 23.0 °F 69% 29.75 in - NNW 21.9 mph 27.6 mph N/A   Overcast
1:35 PM 32.0 °F 20.1 °F 21.2 °F 64% 29.76 in - North 19.6 mph 25.3 mph N/A   Overcast
1:55 PM 32.0 °F 20.5 °F 23.0 °F 69% 29.77 in - NNW 18.4 mph 23.0 mph N/A   Overcast
2:16 PM 32.0 °F 22.1 °F 23.0 °F 69% 29.79 in - NNW 13.8 mph 24.2 mph N/A   Overcast
2:36 PM 32.0 °F 22.5 °F 21.2 °F 64% 29.81 in - NNW 12.7 mph 17.3 mph N/A   Overcast
2:56 PM 32.0 °F 27.5 °F 21.2 °F 64% 29.82 in - North 4.6 mph - N/A   Overcast
3:15 PM 32.0 °F - 21.2 °F 64% 29.83 in - Calm Calm - N/A   Overcast
3:36 PM 32.0 °F 24.2 °F 19.4 °F 60% 29.84 in - NNW 9.2 mph - N/A   Overcast
3:56 PM 30.2 °F 22.6 °F 21.2 °F 69% 29.86 in - NNW 8.1 mph - N/A   Overcast
4:16 PM 30.2 °F 20.8 °F 19.4 °F 64% 29.86 in - NNW 11.5 mph - N/A   Mostly Cloudy
4:36 PM 30.2 °F 21.9 °F 19.4 °F 64% 29.87 in - NNW 9.2 mph - N/A   Overcast
4:56 PM 30.2 °F 19.8 °F 21.2 °F 69% 29.89 in - NNW 13.8 mph 18.4 mph N/A   Overcast
5:16 PM 30.2 °F 22.6 °F 23.0 °F 75% 29.91 in - North 8.1 mph 17.3 mph N/A Snow Light Snow
5:36 PM 30.2 °F 24.3 °F 23.0 °F 75% 29.92 in - NNE 5.8 mph - N/A Snow Light Snow
5:56 PM 28.4 °F - 21.2 °F 74% 29.94 in - Calm Calm - N/A Snow Light Snow
6:15 PM 28.4 °F 23.3 °F 21.2 °F 74% 29.95 in - WNW 4.6 mph - N/A   Overcast
6:36 PM 28.4 °F 19.1 °F 21.2 °F 74% 29.96 in - North 10.4 mph 16.1 mph N/A   Overcast
6:55 PM 28.4 °F 19.7 °F 19.4 °F 69% 29.97 in - NNW 9.2 mph 18.4 mph N/A   Overcast
7:16 PM 28.4 °F 20.4 °F 19.4 °F 69% 29.99 in - North 8.1 mph - N/A   Overcast
7:36 PM 26.6 °F 22.6 °F 19.4 °F 74% 30.00 in - NW 3.5 mph - N/A   Overcast
7:55 PM 24.8 °F 17.9 °F 19.4 °F 80% 30.01 in - North 5.8 mph - N/A   Overcast
8:16 PM 24.8 °F 15.3 °F 17.6 °F 74% 30.02 in - North 9.2 mph - N/A   Overcast
8:36 PM 24.8 °F 16.9 °F 19.4 °F 80% 30.02 in - NNW 6.9 mph - N/A Snow Light Snow
8:56 PM 23.0 °F 18.4 °F 19.4 °F 86% 30.04 in - NNW 3.5 mph - N/A Snow Light Snow
9:16 PM 23.0 °F - 17.6 °F 80% 30.06 in - Calm Calm - N/A   Overcast
9:36 PM 23.0 °F 13.9 °F 15.8 °F 74% 30.06 in - NW 8.1 mph - N/A   Overcast
9:56 PM 23.0 °F 11.1 °F 14.0 °F 68% 30.06 in - NNW 12.7 mph 16.1 mph N/A   Mostly Cloudy
10:15 PM 23.0 °F 14.7 °F 14.0 °F 68% 30.07 in - NNW 6.9 mph - N/A   Scattered Clouds
10:35 PM 23.0 °F 13.1 °F 12.2 °F 63% 30.07 in - North 9.2 mph - N/A   Mostly Cloudy
10:56 PM 23.0 °F 12.4 °F 12.2 °F 63% 30.07 in - NNW 10.4 mph 19.6 mph N/A   Mostly Cloudy
11:16 PM 23.0 °F 13.9 °F 12.2 °F 63% 30.08 in - NNW 8.1 mph - N/A   Overcast
11:36 PM 23.0 °F 11.1 °F 14.0 °F 68% 30.08 in - North 12.7 mph - N/A   Overcast
11:56 PM 23.0 °F 12.4 °F 14.0 °F 68% 30.09 in - NNW 10.4 mph - N/A   Overcast